Temp
7 7 7 7 7 7 7 6 6 6 6 6 6 6 6 6 6 6 6 6 6 6 6 6 6 5 5 5 5 6 5 5 6
7 7 7 7 7 7 6 6 7 7 6 7 6 6 6 5 6 6 6 6 6 6 6 6 6 6 6 5 5 5 5 6 6
7 7 7 7 7 6 7 7 7 7 7 6 6 6 5 5 5 5 5 6 6 6 6 6 6 6 5 5 5 6 5 5 5
7 7 7 7 7 7 7 7 6 7 7 7 6 6 5 5 5 5 5 5 5 5 5 5 5 5 5 5 5 5 5 5 5
7 7 7 7 7 7 7 7 7 7 6 7 7 6 6 5 5 4 4 5 5 5 5 5 5 5 5 5 5 5 5 5 5
7 7 7 7 7 7 7 7 7 7 6 6 6 6 6 6 5 5 4 4 5 5 5 5 5 5 5 5 5 5 4 4 4
7 7 7 7 7 7 7 7 7 6 6 6 6 6 6 6 6 5 5 5 4 4 5 4 4 4 4 4 4 4 4 4 4
7 7 7 6 6 6 6 6 6 6 6 6 6 6 6 6 6 5 5 5 5 5 5 4 4 4 4 4 4 4 4 4 4
7 7 6 6 6 6 6 6 6 6 6 6 6 6 5 5 6 6 5 5 5 4 4 4 4 4 4 4 4 4 4 4 4
6 7 6 6 6 6 6 6 6 6 6 5 6 5 5 5 6 6 5 5 5 4 4 4 4 4 4 4 3 3 3 3 3
7 6 6 6 6 6 6 6 6 6 6 5 5 5 5 5 5 5 5 5 5 4 4 3 3 3 3 3 3 3 3 3 4
6 6 6 6 6 6 5 5 5 5 5 5 5 5 5 5 5 5 5 5 4 4 4 3 3 3 3 3 3 3 3 3 3
5 5 5 5 5 5 5 5 5 5 5 5 5 5 5 5 5 5 5 5 4 4 4 4 3 3 3 3 3 3 4 3 4
5 5 5 5 5 5 4 4 4 4 4 4 4 4 4 4 4 4 4 4 4 4 4 4 3 3 3 3 3 3 4 4 4
4 4 4 4 4 4 4 4 4 4 4 4 3 3 3 3 3 3 3 3 3 3 3 3 3 3 2 2 2 3 4 4 4
4 4 4 4 4 3 3 3 3 3 3 3 3 3 3 3 3 3 3 3 3 3 3 2 3 3 2 2 2 2 3 3 4
3 3 3 3 3 3 3 3 3 2 2 2 2 2 2 2 2 2 2 2 2 2 2 2 2 2 2 2 2 2 2 2 2
3 3 2 2 2 2 2 2 2 2 2 1 1 1 2 1 1 2 2 2 2 2 2 1 1 1 1 1 1 2 2 2 2
2 2 2 2 2 2 1 1 1 1 1 1 1 1 1 1 1 1 1 1 1 1 1 1 1 1 0 1 1 1 1 1 1
1 1 1 1 1 1 1 1 1 1 1 1 0 0 0 0 0 0 0 0 0 0 0 0 0 0 0 0 0 0 0 0 0
Height
3143 3144 3144 3145 3145 3145 3146 3146 3147 3148 3150 3151 3152 3154 3155 3156 3157 3157 3158 3158 3158 3159 3160 3160 3161 3162 3163 3164 3165 3165 3166 3167 3169
3140 3140 3141 3141 3142 3143 3144 3145 3146 3146 3148 3150 3151 3152 3154 3155 3156 3157 3158 3159 3159 3159 3160 3161 3161 3162 3163 3164 3165 3166 3167 3167 3167
3136 3137 3138 3140 3141 3141 3142 3143 3144 3145 3147 3148 3150 3151 3153 3154 3155 3156 3158 3159 3159 3159 3160 3160 3161 3162 3162 3163 3164 3165 3166 3167 3167
3134 3135 3136 3138 3138 3139 3140 3141 3143 3144 3145 3146 3147 3149 3150 3152 3153 3155 3156 3157 3158 3159 3160 3160 3161 3161 3162 3162 3163 3164 3165 3165 3167
3132 3133 3134 3135 3136 3137 3138 3139 3141 3142 3143 3144 3146 3147 3148 3150 3151 3152 3154 3155 3156 3158 3159 3160 3160 3161 3161 3161 3162 3163 3163 3164 3165
3130 3131 3132 3133 3133 3134 3135 3137 3139 3140 3141 3142 3143 3144 3146 3147 3149 3150 3151 3153 3154 3156 3157 3158 3159 3160 3160 3160 3161 3161 3162 3162 3163
3128 3129 3130 3131 3132 3133 3134 3135 3137 3137 3138 3140 3141 3143 3144 3145 3147 3149 3149 3151 3152 3154 3155 3156 3157 3158 3158 3159 3160 3160 3161 3161 3161
3125 3127 3128 3128 3130 3131 3132 3134 3135 3136 3137 3138 3140 3140 3142 3143 3144 3146 3147 3149 3150 3151 3152 3153 3153 3155 3156 3157 3158 3159 3159 3159 3159
3123 3125 3126 3127 3128 3128 3130 3131 3132 3134 3135 3136 3137 3138 3139 3139 3141 3143 3144 3146 3147 3148 3150 3151 3152 3152 3153 3154 3155 3156 3156 3157 3157
3121 3122 3123 3125 3125 3126 3128 3129 3130 3131 3132 3133 3134 3135 3136 3137 3138 3139 3141 3143 3144 3145 3147 3148 3149 3149 3150 3151 3152 3153 3153 3153 3154
3119 3119 3121 3122 3123 3124 3125 3126 3127 3128 3130 3131 3131 3132 3133 3134 3134 3136 3138 3140 3141 3142 3144 3145 3146 3147 3147 3147 3147 3148 3149 3150 3151
3116 3118 3118 3120 3121 3122 3123 3124 3125 3126 3127 3128 3129 3130 3130 3131 3132 3133 3135 3137 3138 3138 3140 3141 3142 3144 3144 3144 3144 3144 3145 3147 3148
3112 3114 3115 3117 3118 3119 3120 3121 3122 3123 3124 3125 3126 3127 3128 3129 3130 3131 3131 3133 3134 3135 3136 3137 3139 3140 3141 3141 3140 3141 3142 3144 3144
3109 3111 3112 3113 3115 3116 3117 3118 3119 3120 3121 3122 3123 3124 3125 3126 3127 3127 3128 3130 3131 3132 3133 3134 3135 3136 3137 3137 3137 3137 3139 3140 3140
3105 3106 3108 3110 3111 3112 3114 3114 3115 3117 3118 3119 3120 3121 3122 3124 3125 3125 3125 3127 3128 3129 3130 3131 3132 3133 3133 3134 3133 3134 3137 3137 3136
3100 3102 3104 3106 3107 3108 3109 3110 3112 3114 3115 3117 3118 3119 3120 3120 3121 3122 3123 3124 3125 3126 3126 3127 3129 3130 3130 3131 3130 3130 3133 3133 3134
3095 3097 3099 3100 3102 3104 3106 3107 3109 3110 3112 3113 3114 3115 3117 3117 3118 3119 3120 3121 3122 3122 3123 3125 3126 3127 3128 3128 3128 3129 3130 3130 3130
3090 3092 3094 3095 3097 3100 3102 3103 3105 3107 3108 3109 3111 3111 3113 3114 3115 3116 3117 3117 3118 3119 3120 3121 3122 3122 3123 3123 3124 3126 3127 3127 3127
3084 3086 3088 3090 3092 3094 3096 3098 3100 3102 3104 3105 3106 3108 3109 3110 3111 3112 3113 3113 3114 3115 3116 3116 3117 3118 3119 3120 3120 3121 3121 3122 3122
3077 3079 3081 3084 3086 3088 3090 3092 3094 3096 3098 3100 3101 3102 3104 3105 3107 3108 3109 3109 3110 3110 3111 3112 3113 3113 3114 3114 3115 3116 3116 3117 3118
Wind_Speed
20 19 17 17 15 14 13 10 11 12 12 11 10 8 7 6 4 2 2 3 3 3 3 4 4 5 5 5 5 5 5 4 7
20 17 17 15 14 13 12 11 13 11 11 11 10 9 8 7 7 5 4 4 3 4 4 4 5 5 6 6 7 7 6 5 8
13 13 13 15 15 13 13 11 11 10 11 11 9 10 9 9 8 8 7 6 4 4 4 3 3 4 6 7 8 8 7 5 5
12 11 12 13 12 12 11 11 10 11 11 10 10 9 8 8 9 10 10 9 8 6 5 4 4 4 5 6 7 7 8 8 8
13 13 12 12 12 12 12 12 11 11 10 10 11 11 11 10 11 11 12 12 11 10 9 7 6 5 6 6 6 6 6 6 7
12 13 12 12 12 12 13 12 12 12 12 12 12 12 12 11 10 14 14 12 12 12 11 11 10 9 7 7 7 6 6 6 5
11 11 11 12 13 14 14 13 12 13 12 13 13 13 13 12 12 13 16 16 14 13 12 12 12 11 11 10 9 8 7 7 7
11 11 12 13 13 13 13 12 13 12 14 14 14 14 15 13 11 11 15 16 16 14 14 13 13 13 13 14 14 13 13 12 12
12 12 12 13 13 13 13 13 13 14 15 15 15 15 15 13 10 9 14 15 16 15 13 13 14 15 14 15 15 16 17 17 17
12 13 13 14 13 14 14 14 15 15 16 16 15 15 14 12 11 9 10 13 14 16 15 14 12 14 15 17 18 18 19 19 19
14 13 14 14 14 14 14 15 16 16 16 16 15 15 14 13 11 10 11 12 13 14 14 13 14 15 15 15 17 18 19 18 19
15 15 15 14 15 15 16 16 16 16 16 16 16 16 15 14 12 12 12 12 12 13 14 12 12 14 14 14 13 16 18 17 18
16 16 16 15 16 15 16 16 15 15 16 16 16 16 15 15 14 13 12 12 11 12 14 16 17 17 20 22 21 19 19 16 18
17 17 17 16 16 16 16 16 16 15 15 15 15 16 16 15 14 13 13 12 13 14 14 15 16 17 19 21 22 22 21 21 21
18 18 18 18 18 18 17 17 16 17 16 16 16 15 15 16 15 14 13 12 12 12 12 13 13 14 16 17 22 21 19 19 18
20 20 20 20 19 19 19 18 17 17 16 15 15 16 16 15 15 14 14 13 13 13 12 13 13 14 14 16 19 19 17 16 16
22 22 22 22 22 21 20 19 18 18 17 16 16 17 17 16 16 16 16 16 16 15 15 16 16 16 17 18 19 20 19 19 19
23 24 24 24 24 23 22 21 20 19 19 18 19 18 17 17 17 17 17 18 18 19 19 19 18 18 18 19 20 20 20 21 21
25 26 26 26 26 26 25 24 24 23 22 21 21 19 19 19 19 18 18 18 19 20 20 20 19 20 21 21 22 22 22 22 22
27 28 28 28 28 28 28 28 27 27 26 25 24 24 23 22 21 20 19 19 19 20 20 21 21 21 21 22 22 23 23 24 22
Wind_Direction
247 248 251 256 260 266 259 250 247 242 241 241 240 244 232 222 213 183 150 165 144 151 168 176 187 181 187 207 209 195 223 262 253
242 246 248 249 251 248 249 240 237 236 239 243 240 244 245 235 212 208 202 194 168 162 167 185 191 211 233 244 245 256 265 264 256
244 239 239 237 234 231 235 234 236 238 238 238 232 230 229 231 223 215 220 218 208 195 181 186 206 220 230 237 251 265 272 267 271
234 231 232 231 231 229 230 233 234 236 238 237 234 233 234 229 228 225 226 230 228 225 220 210 209 223 238 256 258 256 262 264 269
231 232 232 232 235 234 234 235 235 238 239 241 241 242 242 235 221 226 231 232 232 234 233 233 237 240 241 247 259 269 268 270 274
229 227 228 232 232 236 237 235 235 235 236 238 240 241 244 245 230 229 234 237 241 237 234 237 238 239 244 248 253 260 269 278 275
234 232 231 228 229 230 234 235 234 236 239 240 239 239 242 244 241 235 235 239 242 241 245 239 239 240 241 242 248 260 268 271 273
236 235 231 231 231 230 231 230 232 232 234 235 237 237 238 237 233 231 239 238 238 245 244 244 245 245 243 245 250 258 264 268 273
236 233 230 231 231 233 234 234 233 233 235 235 238 239 239 241 241 230 235 239 236 230 231 241 246 247 248 249 253 257 261 266 270
232 231 236 235 234 235 236 238 239 239 239 239 241 243 242 238 241 243 241 241 236 233 240 241 243 253 253 255 256 257 261 265 269
239 239 233 235 239 236 235 237 238 240 241 240 241 243 244 243 244 246 248 245 243 237 234 236 239 254 263 259 261 263 264 267 269
234 234 237 235 233 235 236 235 236 240 240 240 237 238 239 241 241 242 243 242 236 239 240 243 237 232 240 249 256 267 270 271 271
237 235 233 233 236 237 238 240 241 239 238 237 237 237 238 240 239 239 241 243 241 242 244 244 245 244 246 253 259 259 261 267 270
236 235 235 235 235 235 236 237 237 238 238 238 238 238 239 238 238 237 236 234 235 235 238 242 242 244 248 252 258 262 267 268 267
237 235 234 234 234 236 237 236 236 236 238 239 240 241 239 237 235 233 231 230 228 226 225 230 234 241 242 249 254 260 267 274 268
237 236 235 233 232 232 233 236 239 239 240 242 243 244 246 246 247 247 246 246 244 243 241 241 240 240 246 249 257 261 267 276 275
239 238 237 235 233 234 237 238 238 239 240 240 242 244 247 250 251 251 250 249 250 251 249 247 247 246 246 249 255 264 267 269 269
241 239 238 238 237 236 235 235 236 237 237 241 246 249 253 255 254 254 254 256 257 256 255 254 254 254 254 257 260 264 266 267 268
239 240 240 239 238 239 238 237 237 235 237 240 244 247 251 255 257 258 260 260 261 260 259 258 257 256 256 258 260 262 263 266 270
237 238 239 240 241 241 241 240 240 240 240 242 244 245 248 252 257 260 262 263 263 263 264 264 263 261 261 261 262 262 263 263 265